EFW10CC LOWS-EGKK

Flight info

Callsign EFW10CC
Flight time N/A
Altitude 36000
Route TRAUN2A/33 TRAUN L856 KONIN DCT AMEXO DCT BABEG DCT SUNEG L608 ULNOK DCT ADENU DCT LIRSU DCT DENUT L610 TEBRA
Aircraft A320/M-SDE3FGHIRWY/LB1

Departure

Time N/A
Airport Salzburg Airport (LOWS)

Arrival

Time 2026-05-03 20:59
Airport London Gatwick Airport (EGKK)
Time Latitude Longitude Altitude Speed Heading
2026-05-03 20:15 50.42589 5.84210 36009 ft 435 kts 296°
2026-05-03 20:15 50.45721 5.76101 36004 ft 434 kts 296°
2026-05-03 20:16 50.48854 5.67986 36002 ft 434 kts 296°
2026-05-03 20:16 50.51980 5.59864 36011 ft 434 kts 296°
2026-05-03 20:17 50.55099 5.51719 36015 ft 434 kts 296°
2026-05-03 20:17 50.58205 5.43557 36001 ft 434 kts 296°
2026-05-03 20:18 50.61300 5.35393 35994 ft 435 kts 296°
2026-05-03 20:18 50.64377 5.27256 35995 ft 435 kts 296°
2026-05-03 20:19 50.67476 5.19051 35992 ft 435 kts 296°
2026-05-03 20:19 50.70571 5.10843 36002 ft 435 kts 296°
2026-05-03 20:20 50.73666 5.02630 35990 ft 435 kts 295°
2026-05-03 20:20 50.76744 4.94406 35983 ft 435 kts 295°
2026-05-03 20:21 50.79816 4.86146 35980 ft 435 kts 295°
2026-05-03 20:21 50.82863 4.77938 35973 ft 436 kts 295°
2026-05-03 20:22 50.85932 4.69676 35975 ft 436 kts 295°
2026-05-03 20:22 50.89002 4.61379 36006 ft 436 kts 295°
2026-05-03 20:23 50.92054 4.53078 35996 ft 437 kts 295°
2026-05-03 20:23 50.95114 4.44741 35993 ft 437 kts 295°
2026-05-03 20:24 50.98163 4.36406 35989 ft 437 kts 295°
2026-05-03 20:24 51.01221 4.28039 35984 ft 437 kts 295°
2026-05-03 20:25 51.04262 4.19668 35964 ft 437 kts 295°
2026-05-03 20:25 51.07289 4.11300 35958 ft 437 kts 295°
2026-05-03 20:26 51.10302 4.02978 35956 ft 437 kts 295°
2026-05-03 20:26 51.13331 3.94582 35947 ft 437 kts 295°
2026-05-03 20:27 51.16345 3.86191 35941 ft 437 kts 294°
2026-05-03 20:27 51.19352 3.77782 35955 ft 437 kts 294°
2026-05-03 20:28 51.22345 3.69339 35943 ft 436 kts 292°
2026-05-03 20:28 51.24353 3.60373 35935 ft 426 kts 277°
2026-05-03 20:29 51.25582 3.51119 35933 ft 426 kts 277°
2026-05-03 20:29 51.26804 3.41853 35934 ft 426 kts 277°
2026-05-03 20:30 51.28009 3.32601 35404 ft 424 kts 277°
2026-05-03 20:30 51.28597 3.28037 34803 ft 424 kts 276°
2026-05-03 20:30 51.29188 3.23434 34222 ft 423 kts 276°
2026-05-03 20:30 51.29775 3.18823 33573 ft 422 kts 276°
2026-05-03 20:31 51.30359 3.14241 33003 ft 419 kts 276°
2026-05-03 20:31 51.30937 3.09692 32472 ft 416 kts 276°
2026-05-03 20:31 51.31510 3.05172 31943 ft 413 kts 276°
2026-05-03 20:31 51.32079 3.00694 31424 ft 409 kts 275°
2026-05-03 20:32 51.32639 2.96253 30919 ft 406 kts 275°
2026-05-03 20:32 51.33191 2.91840 30385 ft 403 kts 275°
2026-05-03 20:32 51.33738 2.87445 29871 ft 401 kts 275°
2026-05-03 20:32 51.34279 2.83091 29436 ft 400 kts 275°
2026-05-03 20:33 51.34636 2.80207 29160 ft 399 kts 275°
2026-05-03 20:33 51.35173 2.75855 28899 ft 397 kts 275°
2026-05-03 20:33 51.35708 2.71510 28928 ft 398 kts 275°
2026-05-03 20:34 51.36946 2.61419 28501 ft 395 kts 275°
2026-05-03 20:34 51.37305 2.58522 28164 ft 392 kts 275°
2026-05-03 20:34 51.37833 2.54245 27664 ft 389 kts 275°
2026-05-03 20:34 51.38352 2.50014 27181 ft 386 kts 275°
2026-05-03 20:35 51.38863 2.45817 26718 ft 382 kts 275°
2026-05-03 20:35 51.39359 2.41703 26274 ft 380 kts 275°
2026-05-03 20:35 51.39858 2.37561 25847 ft 377 kts 276°
2026-05-03 20:35 51.40354 2.33433 25381 ft 377 kts 276°
2026-05-03 20:36 51.40849 2.29323 24971 ft 375 kts 276°
2026-05-03 20:36 51.41341 2.25233 24576 ft 373 kts 277°
2026-05-03 20:36 51.41832 2.21175 24194 ft 370 kts 277°
2026-05-03 20:36 51.42325 2.17131 23810 ft 368 kts 277°
2026-05-03 20:37 51.42816 2.13107 23417 ft 366 kts 277°
2026-05-03 20:37 51.43305 2.09121 22948 ft 364 kts 277°
2026-05-03 20:37 51.43788 2.05159 22637 ft 362 kts 277°
2026-05-03 20:37 51.44268 2.01193 22365 ft 362 kts 277°
2026-05-03 20:38 51.44745 1.97234 22087 ft 361 kts 277°
2026-05-03 20:38 51.45211 1.93280 21906 ft 360 kts 277°
2026-05-03 20:38 51.45674 1.89332 21928 ft 361 kts 277°
2026-05-03 20:38 51.46130 1.85419 21923 ft 362 kts 277°
2026-05-03 20:39 51.46590 1.81451 21752 ft 359 kts 277°
2026-05-03 20:39 51.47043 1.77547 20992 ft 354 kts 277°
2026-05-03 20:39 51.47485 1.73679 20149 ft 351 kts 277°
2026-05-03 20:39 51.47921 1.69842 19341 ft 347 kts 277°
2026-05-03 20:40 51.48352 1.66051 18558 ft 345 kts 277°
2026-05-03 20:40 51.48540 1.62250 17919 ft 339 kts 265°
2026-05-03 20:40 51.48228 1.58538 17253 ft 333 kts 254°
2026-05-03 20:40 51.47497 1.55037 16581 ft 329 kts 248°
2026-05-03 20:41 51.46705 1.51614 15945 ft 326 kts 248°
2026-05-03 20:41 51.45922 1.48218 15330 ft 323 kts 248°
2026-05-03 20:41 51.45145 1.44842 14794 ft 322 kts 248°
2026-05-03 20:41 51.44379 1.41531 14442 ft 320 kts 247°
2026-05-03 20:42 51.43353 1.38405 14078 ft 316 kts 234°
2026-05-03 20:42 51.41917 1.35765 13903 ft 314 kts 221°
2026-05-03 20:42 51.40191 1.33617 13925 ft 314 kts 217°
2026-05-03 20:42 51.38434 1.31539 13924 ft 314 kts 217°
2026-05-03 20:43 51.36678 1.29459 13918 ft 314 kts 217°
2026-05-03 20:43 51.34920 1.27378 13920 ft 314 kts 217°
2026-05-03 20:43 51.33162 1.25294 13930 ft 314 kts 217°
2026-05-03 20:43 51.31408 1.23219 13925 ft 314 kts 216°
2026-05-03 20:44 51.29652 1.21148 13926 ft 314 kts 216°
2026-05-03 20:44 51.27895 1.19079 13927 ft 314 kts 216°
2026-05-03 20:44 51.26138 1.17008 13926 ft 314 kts 216°
2026-05-03 20:44 51.24384 1.14942 13930 ft 314 kts 216°
2026-05-03 20:45 51.22625 1.12874 13930 ft 314 kts 216°
2026-05-03 20:45 51.20889 1.10840 13934 ft 314 kts 216°
2026-05-03 20:45 51.19128 1.08785 13936 ft 313 kts 216°
2026-05-03 20:45 51.17369 1.06732 13937 ft 313 kts 216°
2026-05-03 20:46 51.15607 1.04680 13939 ft 315 kts 216°
2026-05-03 20:46 51.13836 1.02618 13938 ft 313 kts 216°
2026-05-03 20:46 51.12072 1.00564 13943 ft 314 kts 216°
2026-05-03 20:46 51.10311 0.98513 13943 ft 314 kts 216°
2026-05-03 20:47 51.08548 0.96459 13947 ft 314 kts 216°
2026-05-03 20:47 51.06798 0.94380 13950 ft 314 kts 220°
2026-05-03 20:47 51.05352 0.91804 13665 ft 313 kts 236°
2026-05-03 20:47 51.04370 0.88712 13190 ft 313 kts 243°
2026-05-03 20:48 51.03460 0.85618 12743 ft 312 kts 243°
2026-05-03 20:48 51.02540 0.82497 12319 ft 311 kts 243°
2026-05-03 20:48 51.01620 0.79392 11890 ft 309 kts 244°
2026-05-03 20:48 51.00701 0.76308 11477 ft 308 kts 244°
2026-05-03 20:49 50.99783 0.73249 11069 ft 307 kts 244°
2026-05-03 20:49 50.98871 0.70219 10850 ft 299 kts 244°
2026-05-03 20:49 50.97989 0.67288 10722 ft 289 kts 244°
2026-05-03 20:49 50.97163 0.64413 10321 ft 289 kts 252°
2026-05-03 20:50 50.97008 0.61277 10106 ft 285 kts 279°
2026-05-03 20:50 50.97642 0.58318 9807 ft 285 kts 297°
2026-05-03 20:50 50.98659 0.55617 9455 ft 284 kts 301°
2026-05-03 20:50 50.99723 0.52985 9109 ft 283 kts 301°
2026-05-03 20:51 51.00793 0.50359 8771 ft 282 kts 301°
2026-05-03 20:51 51.01855 0.47751 8438 ft 280 kts 301°
2026-05-03 20:51 51.02913 0.45155 8101 ft 280 kts 301°
2026-05-03 20:51 51.03957 0.42602 7784 ft 279 kts 301°
2026-05-03 20:52 51.05011 0.40024 7466 ft 277 kts 301°
2026-05-03 20:52 51.06070 0.37464 7143 ft 277 kts 305°
2026-05-03 20:52 51.07313 0.35132 6836 ft 276 kts 311°
2026-05-03 20:52 51.08614 0.32882 6519 ft 275 kts 311°
2026-05-03 20:53 51.09899 0.30674 6187 ft 269 kts 311°
2026-05-03 20:53 51.11158 0.28511 5852 ft 263 kts 311°
2026-05-03 20:53 51.12385 0.26392 5522 ft 258 kts 311°
2026-05-03 20:53 51.13587 0.24308 5266 ft 254 kts 311°
2026-05-03 20:54 51.14773 0.22249 5015 ft 251 kts 311°
2026-05-03 20:54 51.17082 0.18234 4622 ft 239 kts 311°
2026-05-03 20:54 51.18163 0.16270 4432 ft 232 kts 304°
2026-05-03 20:55 51.18842 0.13972 4141 ft 228 kts 282°
2026-05-03 20:55 51.18947 0.11508 3867 ft 220 kts 261°
2026-05-03 20:55 51.18651 0.09177 3582 ft 210 kts 257°
2026-05-03 20:55 51.18353 0.06959 3334 ft 199 kts 257°
2026-05-03 20:56 51.18068 0.04848 3066 ft 193 kts 257°
2026-05-03 20:56 51.17791 0.02803 2796 ft 188 kts 257°
2026-05-03 20:56 51.17521 0.00807 2534 ft 182 kts 257°
2026-05-03 20:56 51.17257 -0.01135 2240 ft 175 kts 257°
2026-05-03 20:57 51.17010 -0.02956 2039 ft 160 kts 257°
2026-05-03 20:57 51.16783 -0.04624 1835 ft 149 kts 257°
2026-05-03 20:57 51.16567 -0.06214 1643 ft 145 kts 257°
2026-05-03 20:57 51.16355 -0.07777 1418 ft 144 kts 257°
2026-05-03 20:58 51.16143 -0.09345 1254 ft 145 kts 258°
2026-05-03 20:58 51.15926 -0.10927 1042 ft 147 kts 257°
2026-05-03 20:58 51.15710 -0.12526 841 ft 147 kts 257°
2026-05-03 20:58 51.15492 -0.14117 640 ft 147 kts 257°
2026-05-03 20:59 51.15274 -0.15718 439 ft 147 kts 256°
2026-05-03 20:59 51.15061 -0.17271 247 ft 144 kts 256°
2026-05-03 20:59 51.14869 -0.18644 211 ft 93 kts 258°
2026-05-03 20:59 51.14781 -0.19282 214 ft 43 kts 258°
2026-05-03 21:00 51.14759 -0.19638 209 ft 31 kts 277°
2026-05-03 21:00 51.14788 -0.19850 214 ft 17 kts 283°
2026-05-03 21:00 51.14808 -0.19994 209 ft 8 kts 283°
2026-05-03 21:00 51.14852 -0.20044 208 ft 10 kts 20°
2026-05-03 21:01 51.14875 -0.19926 208 ft 15 kts 78°
2026-05-03 21:01 51.14903 -0.19715 213 ft 24 kts 78°
2026-05-03 21:01 51.14945 -0.19422 215 ft 29 kts 77°
2026-05-03 21:01 51.14989 -0.19097 211 ft 32 kts 78°
2026-05-03 21:02 51.15038 -0.18742 207 ft 33 kts 77°
2026-05-03 21:02 51.15083 -0.18414 203 ft 30 kts 78°
2026-05-03 21:02 51.15124 -0.18190 210 ft 8 kts 20°
2026-05-03 21:02 51.15189 -0.18190 205 ft 10 kts 33°
2026-05-03 21:03 51.15215 -0.18073 205 ft 13 kts 77°
2026-05-03 21:03 51.15236 -0.17927 210 ft 15 kts 77°
2026-05-03 21:03 51.15260 -0.17752 214 ft 17 kts 77°
2026-05-03 21:03 51.15287 -0.17554 205 ft 18 kts 79°
2026-05-03 21:04 51.15303 -0.17416 216 ft 10 kts 79°
2026-05-03 21:04 51.15355 -0.17345 210 ft 10 kts 50°
2026-05-03 21:04 51.15380 -0.17236 215 ft 11 kts 73°
2026-05-03 21:04 51.15408 -0.17122 212 ft 11 kts 72°
2026-05-03 21:05 51.15425 -0.17000 205 ft 11 kts 78°
2026-05-03 21:05 51.15443 -0.16873 205 ft 12 kts 78°
2026-05-03 21:05 51.15448 -0.16742 208 ft 12 kts 100°
2026-05-03 21:05 51.15457 -0.16648 209 ft 6 kts 43°
2026-05-03 21:06 51.15499 -0.16652 210 ft 6 kts 347°
2026-05-03 21:06 51.15523 -0.16660 205 ft 1 kts 348°
2026-05-03 21:06 51.15525 -0.16661 205 ft 0 kts 348°